METEOR 2-5 DEB

Satellite information

Favourite Embed

Satellite Type and Status

DEBRISIN ORBIT

Key statistics

Satellite METEOR 2-5 DEB at a glance.

Uptime

16846

Days in orbit

Revolutions

≈ 14.4

Per day

Orbit

LEO

Low Earth Orbit

Inclination

81.2

Latest

Satellite identification and parameters

Extended collection of information and parameters for METEOR 2-5 DEB.

Object identification

Identified? True

Debris? True

Object name: METEOR 2-5 DEB

International designator: 1979-095CP

Object number (NORAD): 45507

Object ID (CCSDS): 45507

Country: COMMONWEALTH OF INDEPENDENT STATES (CIS)

Current information (Y/N): Y

RCS size: SMALL

Orbital parameters

Period: 100.291 minutes

Inclination: 81.2015 deg

SMA: 7150.467 km

Apoapsis: 777.436 km

Periapsis: 767.228 km

RAAN: 333.6924 deg

Eccentricy: 0.0007138

Argument of periapsis: 204.0841 deg

Mean anomaly: 156.0011 deg

Mean motion: 14.3582374 rev/day

Mean motion (dot): 0.00005487 rev/day2

B* drag term: 0.0018905232 1/REarth

Two-line elements (TLE)

Creation date: Dec. 8, 2025, 11:02 a.m.

Reference frame: TEME

Reference center: EARTH

Epoch: Dec. 8, 2025, 6:03 a.m. UTC

TLE line 0: 0 METEOR 2-5 DEB

TLE line 1: 1 45507U 79095CP 25342.25241935 .00005487 00000-0 18905-2 0 9997

TLE line 2: 2 45507 81.2015 333.6924 0007138 204.0841 156.0011 14.35823740569739

Live tracking on map

Real-time ground track for satellite METEOR 2-5 DEB.

In-orbit conjunctions

A list of the most updated potential collisions computed for object METEOR 2-5 DEB.

Target Orbit TCA Probability of collision Miss distance Type
OSCAR 19 (LUSAT) SSO 2024-11-07 20:11:38 0.0001075276 721.0 (m) PAYLOAD

Associated space launch

Second generation soviet meteorological satellite

METEOR 2-5 DEB was lifted into orbit during the mission ‘Vostok 8A92M | Meteor-2 5’, on board a Vostok 8A92M space rocket.

The launch took place on Oct. 31, 1979, 9:25 a.m. from 43/4 (43R).

For more information about the launch, click the button.

Launch to space Vostok 8A92M | Meteor-2 5
Vostok 8A92M | Meteor-2 5

Agency: N/A

Status: Launch Successful

Launch date: Oct. 31, 1979, 9:25 a.m. UTC

Rocket: Vostok 8A92M

Launch pad: 43/4 (43R)

Location: Plesetsk Cosmodrome, Russian Federation

...

Latest news about this satellite

There are no fresh news available about this satellite. Check back as we update our databases every day.


Newsletter sign-up

Weekly statistics, charts and insights to help you stay on top of the space industry.